CAPE
0 0 0 0 1 10 11 30 83 516 1034 1293 1405 1631 1639 1688 1634 1602 1384 1276 1138 1057 824 700 507 97 228 286 538 439 245 87 46 4 3 23 0 0 0 0 0 0 0
0 0 0 0 0 6 60 24 6 281 666 1162 1519 1626 1691 1600 1595 1453 1143 870 968 887 736 646 572 353 386 359 392 155 115 86 35 14 7 7 0 0 0 0 0 0 0
0 0 0 0 0 0 52 49 7 90 464 882 1553 1510 1382 1465 1350 1087 1049 608 545 622 466 327 484 454 337 513 303 185 107 63 59 17 6 0 0 0 0 0 0 0 0
0 0 0 0 0 0 32 146 118 275 477 799 1179 1385 1084 1173 1136 940 824 630 405 254 100 32 18 172 288 290 173 159 102 24 25 0 0 0 0 0 0 0 0 0 0
0 0 0 0 0 0 40 52 145 162 400 709 973 1058 1197 1099 1018 769 679 555 268 16 0 0 1 0 105 96 33 21 7 15 1 0 0 0 0 0 0 0 0 0 0
0 0 0 0 0 0 39 112 33 78 456 719 681 864 988 732 674 696 576 317 75 20 0 0 0 17 24 28 34 25 9 0 2 0 0 0 0 0 0 0 0 0 0
0 0 0 0 0 0 23 72 56 158 357 637 645 766 740 628 628 596 223 186 119 41 61 41 10 3 22 18 17 0 0 0 0 0 0 0 0 0 0 0 0 0 0
0 0 0 0 0 1 28 18 89 250 451 547 668 721 585 513 472 398 275 333 152 121 85 19 15 0 8 4 0 1 0 0 0 0 0 0 0 0 0 0 0 0 0
0 0 0 0 0 0 36 70 146 101 212 464 427 421 628 592 400 409 308 194 250 130 46 20 16 3 0 1 0 0 0 0 0 0 0 0 0 0 0 0 0 0 0
0 0 0 0 0 17 49 43 8 94 148 320 428 425 403 368 142 133 116 233 140 39 22 22 11 3 8 0 0 0 0 0 0 0 0 0 0 0 0 0 0 0 0
0 0 0 1 20 52 63 32 23 88 118 227 345 214 248 120 91 61 108 125 87 6 0 9 1 0 0 0 0 0 0 0 0 0 0 0 0 0 0 0 0 0 0
0 0 6 22 45 46 37 64 183 250 202 125 113 74 78 9 33 30 70 104 76 0 0 0 0 0 0 0 0 0 0 0 0 0 0 0 0 0 0 0 0 0 0
4 3 0 19 37 64 109 122 271 177 366 87 11 14 3 9 0 35 76 32 10 1 0 0 0 0 0 0 0 0 0 0 0 0 0 0 0 0 0 0 0 0 0
8 0 29 24 41 59 25 45 188 441 504 351 4 11 4 1 0 8 6 46 0 0 0 0 0 0 0 0 0 0 0 0 0 0 0 0 0 0 0 0 0 0 0
0 14 36 10 36 21 11 82 148 243 254 222 104 53 58 28 33 11 20 19 0 0 0 0 0 0 0 0 0 0 0 0 0 0 0 0 0 0 0 0 0 0 0
14 12 7 17 11 19 34 49 94 139 95 154 39 29 16 30 5 9 4 0 0 3 0 0 0 0 0 0 0 0 0 0 0 0 0 0 0 0 0 0 0 0 0
0 9 0 5 8 18 62 76 24 49 21 39 31 20 2 1 5 0 7 0 0 0 0 0 0 0 0 0 0 0 0 0 0 0 0 0 0 0 0 0 0 0 0
1 7 3 16 65 59 128 28 10 4 2 0 43 13 9 21 0 0 0 0 0 0 0 0 0 0 0 0 0 0 0 0 0 0 0 0 0 0 0 0 0 0 0
15 35 38 38 54 10 7 9 19 4 0 2 0 0 0 0 0 0 0 0 0 0 0 0 0 0 0 0 0 0 0 0 0 0 0 0 0 0 0 0 0 0 0
2 0 7 12 0 0 19 13 5 7 0 0 1 0 0 0 0 0 0 0 0 0 0 0 0 0 0 0 0 0 0 0 0 0 0 0 0 0 0 0 0 0 0
10 40 54 33 33 2 2 0 0 0 0 0 0 0 0 0 0 0 0 0 0 0 0 0 0 0 0 0 0 0 0 0 0 0 0 0 0 0 0 0 0 0 0
8 0 0 0 1 1 0 0 0 0 0 0 0 0 0 0 0 0 0 0 0 0 0 0 0 0 0 0 0 0 0 0 0 0 0 0 0 0 0 0 0 0 0
1 0 0 0 0 0 0 0 0 0 0 0 0 0 0 0 0 0 0 0 0 0 0 0 0 0 0 0 0 0 0 0 0 0 0 0 0 0 0 0 0 0 0
0 0 1 0 1 0 0 0 0 0 0 0 0 0 0 0 0 0 0 0 0 0 0 0 0 0 0 0 0 0 0 0 0 0 0 0 0 0 0 0 0 0 0
1 1 0 0 0 0 0 0 0 0 0 0 0 0 0 0 0 0 0 0 0 0 0 0 0 0 0 0 0 0 0 0 0 0 0 0 0 0 0 0 0 0 0
0 0 0 0 0 0 0 0 0 0 0 0 0 0 0 0 0 0 0 0 0 0 0 0 0 0 0 0 0 0 0 0 0 0 0 0 0 0 0 0 0 0 0
CIN
0 0 0 0 -2 -61 -20 -57 -89 -45 -40 -38 -45 -24 -31 -30 -30 -23 -20 -18 -32 -8 -1 0 -5 -58 -2 -3 -4 -3 -9 -13 -6 -25 -22 -4 0 0 0 0 0 0 0
0 0 0 0 0 -31 -43 -16 -23 -68 -32 -51 -36 -22 -26 -22 -26 -36 -43 -38 -9 -1 0 -4 0 -12 0 -1 -2 -7 -1 -1 -12 -7 -5 -1 -9 0 0 0 0 0 0
0 0 0 0 0 0 -52 -27 -26 -75 -58 -17 -33 -16 -33 -36 -49 -54 -38 -127 -90 -27 -1 -1 0 0 -2 0 -1 0 -4 0 0 -4 -2 0 0 0 0 0 0 0 0
0 0 0 0 0 0 -84 -70 -44 -46 -40 -26 -39 -22 -35 -62 -63 -60 -59 -54 -82 -65 -11 -35 -2 0 0 -3 0 0 -2 0 -2 0 -1 0 0 0 0 0 0 0 0
0 0 0 0 0 0 -102 -54 -31 -91 -17 -40 -23 -19 -35 -33 -58 -88 -75 -58 -93 -42 0 0 -2 0 0 0 0 -1 -3 -1 0 0 0 0 0 0 0 0 0 0 0
0 0 0 0 0 0 -89 -22 -36 -97 -11 -35 -34 -33 -43 -47 -96 -105 -85 -69 -73 -54 0 0 0 -17 0 -3 -2 0 0 0 0 0 0 0 0 0 0 0 0 0 0
0 0 0 0 0 0 -24 -34 -70 -76 -57 -24 -53 -57 -73 -109 -93 -81 -72 -71 -58 -80 -74 -51 -47 -1 0 -7 -1 0 0 0 0 0 0 0 0 0 0 0 0 0 0
0 0 0 0 0 -4 -5 -26 -75 -70 -46 -32 -56 -57 -74 -101 -90 -77 -89 -62 -36 -42 -42 -25 -1 0 -13 0 0 0 0 0 0 0 0 0 0 0 0 0 0 0 0
0 0 0 0 0 -22 -3 -10 -55 -74 -57 -27 -72 -76 -48 -56 -59 -30 -43 -58 -22 -27 -10 -5 0 -3 0 0 0 0 0 0 0 0 0 0 0 0 0 0 0 0 0
0 0 0 0 0 -26 -31 -41 -47 -46 -43 -45 -46 -45 -43 -43 -60 -69 -77 -21 -8 -16 -1 0 0 0 -1 0 0 0 0 0 0 0 0 0 0 0 0 0 0 0 0
0 0 0 0 -11 -20 -24 -39 -36 -22 -47 -48 -37 -55 -53 -60 -66 -89 -56 -5 0 -4 0 -7 0 0 0 0 0 0 0 0 0 0 0 0 0 0 0 0 0 0 0
0 0 0 -2 -8 -20 -22 -22 -2 -3 -28 -81 -75 -77 -95 -104 -109 -89 -20 -5 -6 0 0 0 0 0 0 0 0 0 0 0 0 0 0 0 0 0 0 0 0 0 0
0 0 0 -4 -9 -8 -6 -9 0 -7 -6 -52 -75 -105 -148 -165 0 -51 -31 -23 -18 0 0 0 0 0 0 0 0 0 0 0 0 0 0 0 0 0 0 0 0 0 0
0 0 -2 -5 0 0 -3 -14 -3 0 -1 -8 -66 -169 -128 -16 -31 -63 -17 -3 0 0 0 0 0 0 0 0 0 0 0 0 0 0 0 0 0 0 0 0 0 0 0
0 0 -2 0 0 -1 -5 -9 -2 0 0 -10 -25 -26 -28 -30 -9 -34 -14 -13 0 0 0 0 0 0 0 0 0 0 0 0 0 0 0 0 0 0 0 0 0 0 0
0 0 0 -7 0 -6 -1 -2 0 0 -1 0 -11 -7 -23 -12 -20 -20 -6 0 -1 0 0 0 0 0 0 0 0 0 0 0 0 0 0 0 0 0 0 0 0 0 0
0 -1 0 0 0 0 -2 0 -2 0 -15 0 -3 -9 -1 0 0 0 -8 0 0 0 0 0 0 0 0 0 0 0 0 0 0 0 0 0 0 0 0 0 0 0 0
-1 0 0 0 0 -1 0 -1 0 -1 -3 0 0 -6 -11 -6 0 0 0 0 0 0 0 0 0 0 0 0 0 0 0 0 0 0 0 0 0 0 0 0 0 0 0
-1 0 0 0 0 0 -4 -7 0 -6 0 -3 0 0 0 0 0 0 0 0 0 0 0 0 0 0 0 0 0 0 0 0 0 0 0 0 0 0 0 0 0 0 0
0 0 0 -7 0 0 -6 -3 -1 -5 0 -1 0 0 0 0 0 0 0 0 0 0 0 0 0 0 0 0 0 0 0 0 0 0 0 0 0 0 0 0 0 0 0
-28 0 0 0 0 0 0 0 0 0 0 0 0 0 0 0 0 0 0 0 0 0 0 0 0 0 0 0 0 0 0 0 0 0 0 0 0 0 0 0 0 0 0
0 0 0 0 0 0 0 0 0 0 0 0 0 0 0 0 0 0 0 0 0 0 0 0 0 0 0 0 0 0 0 0 0 0 0 0 0 0 0 0 0 0 0
0 0 0 0 0 0 0 0 0 0 0 0 0 0 0 0 0 0 0 0 0 0 0 0 0 0 0 0 0 0 0 0 0 0 0 0 0 0 0 0 0 0 0
0 0 0 0 0 0 0 0 0 0 0 0 0 0 0 0 0 0 0 0 0 0 0 0 0 0 0 0 0 0 0 0 0 0 0 0 0 0 0 0 0 0 0
0 0 0 0 0 0 0 0 0 0 0 0 0 0 0 0 0 0 0 0 0 0 0 0 0 0 0 0 0 0 0 0 0 0 0 0 0 0 0 0 0 0 0
0 0 0 0 0 0 0 0 0 0 0 0 0 0 0 0 0 0 0 0 0 0 0 0 0 0 0 0 0 0 0 0 0 0 0 0 0 0 0 0 0 0 0
Wind_Speed
nan nan nan nan nan nan nan nan nan 50 45 41 37 35 33 34 38 47 52 62 69 70 71 70 75 nan 71 80 67 59 60 nan nan nan nan nan nan nan nan nan nan nan nan
nan nan nan nan nan nan nan nan nan 47 46 41 37 34 36 35 34 36 48 57 60 64 66 71 74 68 71 68 69 69 69 nan nan nan nan nan nan nan nan nan nan nan nan
nan nan nan nan nan nan nan nan nan nan 44 42 37 43 39 38 41 44 48 59 62 61 56 74 70 66 67 69 71 71 60 nan nan nan nan nan nan nan nan nan nan nan nan
nan nan nan nan nan nan nan 35 41 42 44 42 41 43 40 36 36 38 42 50 52 55 67 nan nan 49 69 67 63 65 66 nan nan nan nan nan nan nan nan nan nan nan nan
nan nan nan nan nan nan nan nan 36 45 48 49 46 44 38 36 32 38 36 39 47 nan nan nan nan nan 64 nan nan nan nan nan nan nan nan nan nan nan nan nan nan nan nan
nan nan nan nan nan nan nan 32 nan nan 50 51 45 43 38 36 35 38 42 42 nan nan nan nan nan nan nan nan nan nan nan nan nan nan nan nan nan nan nan nan nan nan nan
nan nan nan nan nan nan nan nan nan 47 50 47 45 42 39 38 40 43 49 45 43 nan nan nan nan nan nan nan nan nan nan nan nan nan nan nan nan nan nan nan nan nan nan
nan nan nan nan nan nan nan nan nan 47 48 42 40 36 39 36 43 45 48 42 38 42 nan nan nan nan nan nan nan nan nan nan nan nan nan nan nan nan nan nan nan nan nan
nan nan nan nan nan nan nan nan 39 42 49 44 39 37 38 38 41 45 44 39 39 34 nan nan nan nan nan nan nan nan nan nan nan nan nan nan nan nan nan nan nan nan nan
nan nan nan nan nan nan nan nan nan nan 44 46 43 37 37 34 38 39 39 36 32 nan nan nan nan nan nan nan nan nan nan nan nan nan nan nan nan nan nan nan nan nan nan
nan nan nan nan nan nan nan nan nan nan 40 41 37 32 33 34 nan nan 39 36 nan nan nan nan nan nan nan nan nan nan nan nan nan nan nan nan nan nan nan nan nan nan nan
nan nan nan nan nan nan nan nan 28 32 35 30 31 nan nan nan nan nan nan 48 nan nan nan nan nan nan nan nan nan nan nan nan nan nan nan nan nan nan nan nan nan nan nan
nan nan nan nan nan nan 16 20 24 24 21 nan nan nan nan nan nan nan nan nan nan nan nan nan nan nan nan nan nan nan nan nan nan nan nan nan nan nan nan nan nan nan nan
nan nan nan nan nan nan nan nan 20 19 21 20 nan nan nan nan nan nan nan nan nan nan nan nan nan nan nan nan nan nan nan nan nan nan nan nan nan nan nan nan nan nan nan
nan nan nan nan nan nan nan nan 22 23 20 20 24 nan nan nan nan nan nan nan nan nan nan nan nan nan nan nan nan nan nan nan nan nan nan nan nan nan nan nan nan nan nan
nan nan nan nan nan nan nan nan nan 31 nan 32 nan nan nan nan nan nan nan nan nan nan nan nan nan nan nan nan nan nan nan nan nan nan nan nan nan nan nan nan nan nan nan
nan nan nan nan nan nan nan nan nan nan nan nan nan nan nan nan nan nan nan nan nan nan nan nan nan nan nan nan nan nan nan nan nan nan nan nan nan nan nan nan nan nan nan
nan nan nan nan nan nan 13 nan nan nan nan nan nan nan nan nan nan nan nan nan nan nan nan nan nan nan nan nan nan nan nan nan nan nan nan nan nan nan nan nan nan nan nan
nan nan nan nan nan nan nan nan nan nan nan nan nan nan nan nan nan nan nan nan nan nan nan nan nan nan nan nan nan nan nan nan nan nan nan nan nan nan nan nan nan nan nan
nan nan nan nan nan nan nan nan nan nan nan nan nan nan nan nan nan nan nan nan nan nan nan nan nan nan nan nan nan nan nan nan nan nan nan nan nan nan nan nan nan nan nan
nan nan nan nan nan nan nan nan nan nan nan nan nan nan nan nan nan nan nan nan nan nan nan nan nan nan nan nan nan nan nan nan nan nan nan nan nan nan nan nan nan nan nan
nan nan nan nan nan nan nan nan nan nan nan nan nan nan nan nan nan nan nan nan nan nan nan nan nan nan nan nan nan nan nan nan nan nan nan nan nan nan nan nan nan nan nan
nan nan nan nan nan nan nan nan nan nan nan nan nan nan nan nan nan nan nan nan nan nan nan nan nan nan nan nan nan nan nan nan nan nan nan nan nan nan nan nan nan nan nan
nan nan nan nan nan nan nan nan nan nan nan nan nan nan nan nan nan nan nan nan nan nan nan nan nan nan nan nan nan nan nan nan nan nan nan nan nan nan nan nan nan nan nan
nan nan nan nan nan nan nan nan nan nan nan nan nan nan nan nan nan nan nan nan nan nan nan nan nan nan nan nan nan nan nan nan nan nan nan nan nan nan nan nan nan nan nan
nan nan nan nan nan nan nan nan nan nan nan nan nan nan nan nan nan nan nan nan nan nan nan nan nan nan nan nan nan nan nan nan nan nan nan nan nan nan nan nan nan nan nan
Wind_Direction
nan nan nan nan nan nan nan nan nan 245 244 250 251 254 266 268 254 247 243 246 249 250 254 258 253 nan 263 266 276 274 277 nan nan nan nan nan nan nan nan nan nan nan nan
nan nan nan nan nan nan nan nan nan 243 241 241 246 245 251 254 260 257 249 250 252 249 249 263 260 263 264 271 269 269 271 nan nan nan nan nan nan nan nan nan nan nan nan
nan nan nan nan nan nan nan nan nan nan 235 236 237 242 249 253 254 255 254 249 248 245 248 243 246 256 267 271 271 271 276 nan nan nan nan nan nan nan nan nan nan nan nan
nan nan nan nan nan nan nan 252 244 237 232 230 233 241 244 247 255 263 265 262 257 258 252 nan nan 246 259 251 263 269 269 nan nan nan nan nan nan nan nan nan nan nan nan
nan nan nan nan nan nan nan nan 234 228 225 227 236 236 239 244 250 264 267 265 262 nan nan nan nan nan 240 nan nan nan nan nan nan nan nan nan nan nan nan nan nan nan nan
nan nan nan nan nan nan nan 243 nan nan 220 229 232 240 241 239 249 258 271 272 nan nan nan nan nan nan nan nan nan nan nan nan nan nan nan nan nan nan nan nan nan nan nan
nan nan nan nan nan nan nan nan nan 208 218 224 232 234 236 239 249 257 266 270 279 nan nan nan nan nan nan nan nan nan nan nan nan nan nan nan nan nan nan nan nan nan nan
nan nan nan nan nan nan nan nan nan 208 215 222 230 233 237 237 253 262 266 269 276 255 nan nan nan nan nan nan nan nan nan nan nan nan nan nan nan nan nan nan nan nan nan
nan nan nan nan nan nan nan nan 209 213 214 219 228 235 238 236 245 259 266 269 274 241 nan nan nan nan nan nan nan nan nan nan nan nan nan nan nan nan nan nan nan nan nan
nan nan nan nan nan nan nan nan nan nan 217 220 223 222 240 237 238 255 266 268 250 nan nan nan nan nan nan nan nan nan nan nan nan nan nan nan nan nan nan nan nan nan nan
nan nan nan nan nan nan nan nan nan nan 215 222 224 220 232 240 nan nan 255 261 nan nan nan nan nan nan nan nan nan nan nan nan nan nan nan nan nan nan nan nan nan nan nan
nan nan nan nan nan nan nan nan 212 219 214 216 222 nan nan nan nan nan nan 241 nan nan nan nan nan nan nan nan nan nan nan nan nan nan nan nan nan nan nan nan nan nan nan
nan nan nan nan nan nan 177 189 187 197 208 nan nan nan nan nan nan nan nan nan nan nan nan nan nan nan nan nan nan nan nan nan nan nan nan nan nan nan nan nan nan nan nan
nan nan nan nan nan nan nan nan 179 193 211 224 nan nan nan nan nan nan nan nan nan nan nan nan nan nan nan nan nan nan nan nan nan nan nan nan nan nan nan nan nan nan nan
nan nan nan nan nan nan nan nan 181 189 204 227 228 nan nan nan nan nan nan nan nan nan nan nan nan nan nan nan nan nan nan nan nan nan nan nan nan nan nan nan nan nan nan
nan nan nan nan nan nan nan nan nan 225 nan 235 nan nan nan nan nan nan nan nan nan nan nan nan nan nan nan nan nan nan nan nan nan nan nan nan nan nan nan nan nan nan nan
nan nan nan nan nan nan nan nan nan nan nan nan nan nan nan nan nan nan nan nan nan nan nan nan nan nan nan nan nan nan nan nan nan nan nan nan nan nan nan nan nan nan nan
nan nan nan nan nan nan 184 nan nan nan nan nan nan nan nan nan nan nan nan nan nan nan nan nan nan nan nan nan nan nan nan nan nan nan nan nan nan nan nan nan nan nan nan
nan nan nan nan nan nan nan nan nan nan nan nan nan nan nan nan nan nan nan nan nan nan nan nan nan nan nan nan nan nan nan nan nan nan nan nan nan nan nan nan nan nan nan
nan nan nan nan nan nan nan nan nan nan nan nan nan nan nan nan nan nan nan nan nan nan nan nan nan nan nan nan nan nan nan nan nan nan nan nan nan nan nan nan nan nan nan
nan nan nan nan nan nan nan nan nan nan nan nan nan nan nan nan nan nan nan nan nan nan nan nan nan nan nan nan nan nan nan nan nan nan nan nan nan nan nan nan nan nan nan
nan nan nan nan nan nan nan nan nan nan nan nan nan nan nan nan nan nan nan nan nan nan nan nan nan nan nan nan nan nan nan nan nan nan nan nan nan nan nan nan nan nan nan
nan nan nan nan nan nan nan nan nan nan nan nan nan nan nan nan nan nan nan nan nan nan nan nan nan nan nan nan nan nan nan nan nan nan nan nan nan nan nan nan nan nan nan
nan nan nan nan nan nan nan nan nan nan nan nan nan nan nan nan nan nan nan nan nan nan nan nan nan nan nan nan nan nan nan nan nan nan nan nan nan nan nan nan nan nan nan
nan nan nan nan nan nan nan nan nan nan nan nan nan nan nan nan nan nan nan nan nan nan nan nan nan nan nan nan nan nan nan nan nan nan nan nan nan nan nan nan nan nan nan
nan nan nan nan nan nan nan nan nan nan nan nan nan nan nan nan nan nan nan nan nan nan nan nan nan nan nan nan nan nan nan nan nan nan nan nan nan nan nan nan nan nan nan